TimeCXT,TemperatureF,Dew PointF,Humidity,Sea Level PressureIn,VisibilityMPH,Wind Direction,Wind SpeedMPH,Gust SpeedMPH,PrecipitationIn,Events,Conditions,WindDirDegrees,DateUTC
12:00 AM,77,72,79,29.90,,SE,9.2,,,,,140,2012-11-16 17:00:00
12:00 AM,77.0,71.6,83,29.92,6.2,SE,9.2,-,N/A,,Scattered Clouds,140,2012-11-16 17:00:00
12:12 AM,77.0,71.6,83,29.92,6.2,SE,9.2,-,N/A,,Mostly Cloudy,140,2012-11-16 17:12:00
1:00 AM,76,71,81,29.88,,SE,9.2,,,,,140,2012-11-16 18:00:00
1:04 AM,77.0,71.6,83,29.92,6.2,SE,9.2,-,N/A,,Mostly Cloudy,140,2012-11-16 18:04:00
1:58 AM,77.0,71.6,83,29.89,6.2,SE,10.4,-,N/A,,Scattered Clouds,140,2012-11-16 18:58:00
2:00 AM,77.0,71.6,83,29.89,6.2,SE,10.4,-,N/A,,Scattered Clouds,140,2012-11-16 19:00:00
3:00 AM,76,71,81,29.86,,SE,9.2,,,,,130,2012-11-16 20:00:00
3:00 AM,77.0,71.6,83,29.89,6.2,SE,9.2,-,N/A,,Mostly Cloudy,130,2012-11-16 20:00:00
4:00 AM,76,71,79,29.86,,SE,10.4,,,,,130,2012-11-16 21:00:00
4:00 AM,77.0,71.6,83,29.89,6.2,SE,10.4,-,N/A,,Scattered Clouds,130,2012-11-16 21:00:00
4:51 AM,77.0,71.6,83,29.89,6.2,SE,10.4,-,N/A,,Mostly Cloudy,130,2012-11-16 21:51:00
5:00 AM,77.0,71.6,83,29.89,6.2,SE,10.4,-,N/A,,Overcast,130,2012-11-16 22:00:00
5:30 AM,77.0,71.6,83,29.92,6.2,SE,10.4,-,N/A,,Mostly Cloudy,130,2012-11-16 22:30:00
6:00 AM,77,71,77,29.88,,SE,10.4,,,,Overcast,130,2012-11-16 23:00:00
6:00 AM,77.0,71.6,83,29.92,6.2,SE,10.4,-,N/A,,Mostly Cloudy,130,2012-11-16 23:00:00
7:00 AM,78,72,76,29.90,,ESE,10.4,,,,,120,2012-11-17 00:00:00
7:02 AM,77.0,71.6,83,29.95,6.2,ESE,10.4,-,N/A,,Mostly Cloudy,120,2012-11-17 00:02:00
8:00 AM,78.8,71.6,78,29.95,6.2,ESE,12.7,-,N/A,,Overcast,120,2012-11-17 01:00:00
8:06 AM,78.8,71.6,78,29.95,6.2,ESE,11.5,-,N/A,,Overcast,120,2012-11-17 01:06:00
9:00 AM,81,71,65,29.91,,ESE,15.0,,,,,120,2012-11-17 02:00:00
9:01 AM,80.6,71.6,74,29.95,6.2,ESE,15.0,-,N/A,,Mostly Cloudy,120,2012-11-17 02:01:00
10:00 AM,80,71,67,29.91,,ESE,12.7,,,,,110,2012-11-17 03:00:00
10:00 AM,80.6,71.6,74,29.95,6.2,ESE,12.7,-,N/A,,Overcast,110,2012-11-17 03:00:00
11:00 AM,80.6,71.6,74,29.92,6.2,SE,12.7,-,N/A,,Overcast,130,2012-11-17 04:00:00
12:00 PM,82,71,61,29.87,,ESE,12.7,,,,Overcast,120,2012-11-17 05:00:00
12:00 PM,82.4,71.6,70,29.89,6.2,ESE,12.7,-,N/A,,Overcast,120,2012-11-17 05:00:00
12:27 PM,80.6,71.6,74,29.89,6.2,ESE,12.7,-,N/A,,Mostly Cloudy,120,2012-11-17 05:27:00
1:00 PM,83,71,58,29.84,,ESE,12.7,,,,,120,2012-11-17 06:00:00
1:00 PM,82.4,69.8,66,29.86,6.2,ESE,12.7,-,N/A,,Mostly Cloudy,120,2012-11-17 06:00:00
2:00 PM,82.4,71.6,70,29.86,6.2,ESE,11.5,-,N/A,,Overcast,120,2012-11-17 07:00:00
2:35 PM,80.6,71.6,74,29.83,6.2,SE,12.7,-,N/A,,Mostly Cloudy,130,2012-11-17 07:35:00
3:00 PM,80,72,70,29.80,,SE,12.7,,,,Overcast,140,2012-11-17 08:00:00
3:00 PM,80.6,71.6,74,29.83,6.2,SE,12.7,-,N/A,,Mostly Cloudy,140,2012-11-17 08:00:00
4:00 PM,80,71,68,29.78,,SE,12.7,,,,,130,2012-11-17 09:00:00
4:00 PM,78.8,71.6,78,29.83,6.2,SE,12.7,-,N/A,,Mostly Cloudy,130,2012-11-17 09:00:00
5:00 PM,78.8,71.6,78,29.83,6.2,SE,10.4,-,N/A,,Mostly Cloudy,140,2012-11-17 10:00:00
6:00 PM,77,71,77,29.80,,SE,11.5,,,,,130,2012-11-17 11:00:00
6:00 PM,77.0,71.6,83,29.83,6.2,SE,11.5,-,N/A,,Mostly Cloudy,130,2012-11-17 11:00:00
7:00 PM,77,71,78,29.83,,SE,11.5,,,,,130,2012-11-17 12:00:00
7:00 PM,77.0,71.6,83,29.86,6.2,SE,11.5,-,N/A,,Mostly Cloudy,130,2012-11-17 12:00:00
8:00 PM,77.0,71.6,83,29.89,6.2,SE,12.7,-,N/A,,Mostly Cloudy,130,2012-11-17 13:00:00
8:08 PM,77.0,71.6,83,29.89,6.2,SE,11.5,-,N/A,,Mostly Cloudy,130,2012-11-17 13:08:00
8:12 PM,77.0,71.6,83,29.89,6.2,SE,11.5,-,N/A,,Mostly Cloudy,130,2012-11-17 13:12:00
8:55 PM,77.0,71.6,83,29.92,6.2,SE,11.5,-,N/A,,Mostly Cloudy,130,2012-11-17 13:55:00
9:00 PM,77,71,77,29.88,,SE,10.4,,,,Overcast,130,2012-11-17 14:00:00
9:00 PM,77.0,71.6,83,29.92,6.2,SE,10.4,-,N/A,,Mostly Cloudy,130,2012-11-17 14:00:00
9:07 PM,77.0,71.6,83,29.92,6.2,SE,10.4,-,N/A,,Mostly Cloudy,130,2012-11-17 14:07:00
9:42 PM,77.0,71.6,83,29.92,6.2,SE,10.4,-,N/A,,Mostly Cloudy,130,2012-11-17 14:42:00
10:00 PM,77,71,76,29.88,,SE,10.4,,,,,130,2012-11-17 15:00:00
10:00 PM,77.0,71.6,83,29.92,6.2,SE,10.4,-,N/A,,Scattered Clouds,130,2012-11-17 15:00:00
11:00 PM,77.0,71.6,83,29.92,6.2,SE,9.2,-,N/A,,Mostly Cloudy,130,2012-11-17 16:00:00
11:50 PM,77.0,71.6,83,29.92,6.2,SE,10.4,-,N/A,,Mostly Cloudy,130,2012-11-17 16:50:00